Tracking 27188 objects as of 1-Apr-2023
HD Live streaming from Space Station
objects crossing your sky now

STARLINK-4048

Track STARLINK-4048 now!
10-day predictions
STARLINK-4048 is classified as:


NORAD ID: 52839
Int'l Code: 2022-062K
Perigee: 545.3 km
Apogee: 548.5 km
Inclination: 53.2 °
Period: 95.4 minutes
Semi major axis: 6917 km
RCS: Unknown
Launch date: June 17, 2022
Source: United States (US)
Launch site: AIR FORCE EASTERN TEST RANGE (AFETR)
Your satellite tracking list
Your tracking list is empty




NASA's NSSDC Master Catalog

Two Line Element Set (TLE):
1 52839U 22062K   23091.25247037  .00011571  00000-0  74410-3 0  9998
2 52839  53.2166 172.9733 0002283 106.4655 253.6588 15.08830144 44229
Source of the keplerian elements: AFSPC